Regional Weather Roundup
Issued by NWS

Home | Current Version | Previous Version | Text Only | Print | Product List | Glossary Off
Versions: 1 2 3 4 5 6 7 8 9 10 11 12 13 14 15 16 17 18 19 20 21 22 23 24 25 26 27 28 29 30 31 32 33 34 35 36 37 38 39 40 41 42 43 44 45 46 47 48 49 50

868
ASUS43 KLMK 181910
RWRKY
KENTUCKY REGIONAL WEATHER ROUNDUP
NATIONAL WEATHER SERVICE LOUISVILLE KY
200 PM EST SUN FEB 18 2018

NOTE "FAIR" INDICATES FEW OR NO CLOUDS BELOW 12,000 FEET
WITH NO SIGNIFICANT WEATHER AND/OR OBSTRUCTIONS TO VISIBILITY.

KYZ001>023-026-027-061>063-070>075-182000-
WESTERN AND SOUTH CENTRAL KENTUCKY

CITY           SKY/WX    TMP DP  RH WIND       PRES   REMARKS
PADUCAH        FAIR      52  33  48 SE13      30.20F
HENDERSON      FAIR      49  33  54 SE13      30.23F
OWENSBORO      FAIR      51  35  54 S12       30.24F
HOPKINSVILLE   FAIR      51  31  45 SE8       30.21F
BOWLING GREEN  FAIR      53  33  46 SE6       30.24F
GLASGOW        FAIR      53  34  47 SE8       30.24F
$$

KYZ024-025-028>034-038-045-046-053-182000-
NORTH CENTRAL KENTUCKY

CITY           SKY/WX    TMP DP  RH WIND       PRES   REMARKS
LOUISVILLE/SDF PTSUNNY   49  33  54 SE7       30.27F
LOUISVILLE/LOU FAIR      50  32  50 SE13G18   30.28F
FORT KNOX      FAIR      50  34  53 E8        30.25F
$$

KYZ035>037-039>044-047>052-055>060-089>105-182000-
NORTHEAST KENTUCKY

CITY           SKY/WX    TMP DP  RH WIND       PRES   REMARKS
LEXINGTON      FAIR      49  33  54 SE10      30.27F
COVINGTON      PTSUNNY   44  34  67 SE10      30.29F
FRANKFORT      FAIR      50  32  50 SE12G17   30.26F
$$

KYZ054-064>069-076>088-106>120-182000-
SOUTHEAST KENTUCKY

CITY           SKY/WX    TMP DP  RH WIND       PRES   REMARKS
JACKSON        FAIR      50  32  50 MISG      30.28F
LONDON         FAIR      50  33  52 E8        30.26F
SOMERSET       FAIR      52  32  46 E7        30.27F
MIDDLESBORO    FAIR      55  32  42 SE6       30.27F
MONTICELLO     NOT AVBL
$$





USA.gov is the U.S. government's official web portal to all federal, state and local government web resources and services.